Date String (YYYY-MM-DD hh:mm:ss) UTC,Instrument flags,absolute air pressure of the measurement (hPa),sample flow rate (lpm),inlet stack bypass flow (lpm),air temperature of the measurement (°C),ambient temperature measured by the external sensor (°C),aerosol sample conditioner tube jacket temperature (°C),OPC LED temperature (°C),internal box temperature (°C),relative humidity of the measurement (%),span deviation,mass concentration of particles derived from Lorenz-Mie calculation of OPC scattering (μg/m³),mass concentration of particles derived from Lorenz-Mie calculation of OPC scattering (μg/m³),mass concentration of particles derived from Lorenz-Mie calculation of OPC scattering (μg/m³)
DateTimeUTC,F1_M11,P_M11,Q1_M11,Q2_M11,T1_M11,T2_M11,T3_M11,T4_M11,T5_M11,U1_M11,ZSPAN_M11,X0_M11,X2_M11,X1_M11
2023-07-15 21:00:00,SystemResetWarning,0835.0,5.00,000.00,029.6,025.6,000.0,037.6,030.3,33.5,0000.0,0012.45,0006.13,0005.25
2023-07-15 21:01:00,SystemResetWarning,0835.1,5.00,000.00,029.6,026.1,000.0,037.6,030.4,33.4,0000.0,0012.71,0006.16,0005.27
2023-07-15 21:02:00,SystemResetWarning,0835.0,4.99,000.00,029.6,026.5,000.0,037.7,030.5,33.3,0000.0,0012.93,0006.17,0005.27
2023-07-15 21:03:00,SystemResetWarning,0835.1,5.00,000.00,029.6,026.9,000.0,037.7,030.7,33.5,0000.0,0013.35,0006.14,0005.27
2023-07-15 21:04:00,SystemResetWarning,0835.2,5.01,000.00,029.6,027.2,000.0,037.7,030.7,33.3,0000.0,0014.30,0006.18,0005.27
2023-07-15 21:05:00,SystemResetWarning,0835.0,5.01,000.00,029.7,027.5,000.0,037.8,030.8,33.9,0000.0,0014.46,0006.18,0005.27
2023-07-15 21:06:00,SystemResetWarning,0834.8,4.99,000.00,029.7,027.6,000.0,037.8,030.9,34.5,0000.0,0015.06,0006.17,0005.27
2023-07-15 21:07:00,SystemResetWarning,0835.0,4.99,000.00,029.7,026.2,000.0,037.7,030.7,35.0,0000.0,0015.53,0006.14,0005.28
2023-07-15 21:08:00,SystemResetWarning,0834.6,5.01,000.00,029.7,025.1,000.0,037.6,030.5,34.2,0000.0,0015.55,0006.19,0005.29
2023-07-15 21:09:00,SystemResetWarning,0834.8,4.98,000.00,029.7,025.0,000.0,037.5,030.4,35.5,0000.0,0015.04,0006.20,0005.31
2023-07-15 21:10:00,SystemResetWarning,0835.0,5.05,000.00,029.7,025.3,000.0,037.6,030.3,35.3,0000.0,0016.28,0006.18,0005.32
2023-07-15 21:11:00,SystemResetWarning,0834.8,4.95,000.00,029.9,025.8,000.0,037.6,030.5,34.1,-000.1,0016.12,0006.20,0005.32
2023-07-15 21:12:00,SystemResetWarning,0834.6,5.03,000.00,030.0,026.2,000.0,037.7,030.7,33.5,-000.3,0015.74,0006.17,0005.31
2023-07-15 21:13:00,SystemResetWarning,0834.6,4.99,000.00,030.1,026.7,000.0,037.8,030.8,33.2,-000.7,0015.58,0006.15,0005.33
2023-07-15 21:14:00,SystemResetWarning,0834.7,5.00,000.00,030.2,027.1,000.0,037.8,030.8,32.6,-000.7,0015.80,0006.22,0005.35
2023-07-15 21:15:00,SystemResetWarning,0834.9,5.01,000.00,030.2,027.4,000.0,037.9,030.9,32.1,-000.5,0015.01,0006.19,0005.35
2023-07-15 21:16:00,SystemResetWarning,0834.8,5.00,000.00,030.3,027.7,000.0,038.0,031.0,32.5,-000.5,0014.82,0006.19,0005.35
2023-07-15 21:17:00,SystemResetWarning,0835.1,4.99,000.00,030.3,027.4,000.0,038.0,031.0,31.4,-000.8,0014.18,0006.18,0005.35
2023-07-15 21:18:00,SystemResetWarning,0834.6,4.99,000.00,030.3,025.8,000.0,037.9,030.8,32.4,-001.3,0013.85,0006.17,0005.35
2023-07-15 21:19:00,SystemResetWarning,0834.6,5.01,000.00,030.3,025.1,000.0,037.9,030.6,32.6,-001.1,0013.89,0006.14,0005.35
2023-07-15 21:20:00,SystemResetWarning,0834.7,5.01,000.00,030.1,025.2,000.0,037.9,030.5,33.0,-001.1,0013.71,0006.11,0005.33
2023-07-15 21:21:00,SystemResetWarning,0834.8,5.00,000.00,030.0,025.6,000.0,038.0,030.5,33.3,-001.2,0013.24,0006.11,0005.31
2023-07-15 21:22:00,SystemResetWarning,0834.8,4.98,000.00,030.0,026.0,000.0,038.0,030.6,34.8,-001.1,0012.58,0006.10,0005.30
2023-07-15 21:23:00,SystemResetWarning,0834.8,5.02,000.00,030.0,026.5,000.0,038.0,030.7,33.5,-001.0,0012.58,0006.08,0005.30
2023-07-15 21:24:00,SystemResetWarning,0834.6,4.99,000.00,030.1,026.9,000.0,038.1,030.8,33.8,-000.2,0012.49,0006.08,0005.31
2023-07-15 21:25:00,SystemResetWarning,0834.8,5.00,000.00,030.1,027.3,000.0,038.1,030.9,34.5,0000.0,0012.21,0006.04,0005.30
2023-07-15 21:26:00,SystemResetWarning,0834.7,5.00,000.00,030.2,027.6,000.0,038.1,031.0,33.5,0000.0,0012.57,0006.04,0005.29
2023-07-15 21:27:00,SystemResetWarning,0834.9,5.00,000.00,030.2,027.8,000.0,038.2,031.1,32.6,0000.0,0012.99,0006.04,0005.29
2023-07-15 21:28:00,SystemResetWarning,0834.9,4.99,000.00,030.2,026.9,000.0,038.1,031.0,33.1,0000.0,0013.14,0006.06,0005.29
2023-07-15 21:29:00,SystemResetWarning,0834.5,5.00,000.00,030.2,025.5,000.0,038.0,030.7,32.8,-000.0,0012.79,0006.09,0005.29
2023-07-15 21:30:00,SystemResetWarning,0834.5,5.01,000.00,030.1,025.1,000.0,037.9,030.6,32.4,-000.1,0013.46,0006.13,0005.28
2023-07-15 21:31:00,SystemResetWarning,0834.5,5.00,000.00,030.0,025.3,000.0,037.9,030.5,32.4,0000.0,0013.79,0006.16,0005.28
2023-07-15 21:32:00,SystemResetWarning,0834.5,5.00,000.00,029.9,025.8,000.0,038.0,030.5,32.5,0000.4,0013.34,0006.20,0005.30
2023-07-15 21:33:00,SystemResetWarning,0834.5,5.00,000.00,029.9,026.2,000.0,038.0,030.6,32.9,0000.6,0013.55,0006.20,0005.32
2023-07-15 21:34:00,SystemResetWarning,0834.5,5.00,000.00,029.8,026.7,000.0,038.0,030.7,33.2,0000.6,0013.99,0006.20,0005.31
2023-07-15 21:35:00,SystemResetWarning,0834.5,5.00,000.00,029.9,027.1,000.0,038.0,030.8,33.7,0000.9,0014.03,0006.19,0005.32
2023-07-15 21:36:00,SystemResetWarning,0834.4,4.99,000.00,029.9,027.4,000.0,038.1,030.9,33.7,0000.8,0014.41,0006.19,0005.32
2023-07-15 21:37:00,SystemResetWarning,0834.4,4.99,000.00,029.9,027.7,000.0,038.1,031.0,34.4,0000.3,0013.74,0006.18,0005.34
2023-07-15 21:38:00,SystemResetWarning,0834.4,4.99,000.00,029.9,027.0,000.0,038.0,030.9,33.7,0000.4,0013.52,0006.22,0005.35
2023-07-15 21:39:00,SystemResetWarning,0834.3,5.00,000.00,029.9,025.5,000.0,037.9,030.6,34.5,0000.8,0013.80,0006.26,0005.36
2023-07-15 21:40:00,SystemResetWarning,0834.3,5.02,000.00,029.8,025.0,000.0,037.8,030.5,34.5,0000.7,0014.66,0006.27,0005.36
2023-07-15 21:41:00,SystemResetWarning,0834.3,4.99,000.00,029.7,025.2,000.0,037.8,030.4,34.9,-000.3,0014.76,0006.28,0005.37
2023-07-15 21:42:00,SystemResetWarning,0834.3,5.01,000.00,029.7,025.6,000.0,037.8,030.5,35.0,-000.2,0014.57,0006.28,0005.38
2023-07-15 21:43:00,SystemResetWarning,0834.4,4.98,000.00,029.8,026.1,000.0,037.9,030.6,34.7,-000.7,0014.52,0006.25,0005.38
2023-07-15 21:44:00,SystemResetWarning,0834.3,5.02,000.00,030.0,026.6,000.0,037.9,030.8,35.2,-001.0,0014.68,0006.30,0005.38
2023-07-15 21:45:00,SystemResetWarning,0834.4,5.00,000.00,030.2,027.0,000.0,037.9,031.0,33.4,0000.0,0014.41,0006.30,0005.39
2023-07-15 21:46:00,SystemResetWarning,0834.3,4.98,000.00,030.3,027.4,000.0,038.0,031.1,32.6,0000.0,0014.30,0006.33,0005.39
2023-07-15 21:47:00,SystemResetWarning,0834.5,5.01,000.00,030.4,027.7,000.0,038.0,031.1,31.8,0000.0,0013.85,0006.33,0005.40
2023-07-15 21:48:00,SystemResetWarning,0834.5,5.00,000.00,030.5,027.2,000.0,038.0,031.1,31.6,0000.0,0014.09,0006.32,0005.40
2023-07-15 21:49:00,SystemResetWarning,0834.2,4.98,000.00,030.5,025.7,000.0,038.0,030.9,31.8,0000.0,0014.07,0006.32,0005.41
2023-07-15 21:50:00,SystemResetWarning,0834.2,5.01,000.00,030.5,025.1,000.0,037.9,030.7,31.1,0000.0,0013.93,0006.28,0005.40
2023-07-15 21:51:00,SystemResetWarning,0834.2,5.01,000.00,030.4,025.2,000.0,038.0,030.6,31.4,0000.0,0013.29,0006.26,0005.41
2023-07-15 21:52:00,SystemResetWarning,0834.1,5.00,000.00,030.3,025.6,000.0,038.0,030.5,31.5,0000.0,0012.46,0006.28,0005.40
2023-07-15 21:53:00,SystemResetWarning,0834.1,5.00,000.00,030.2,026.1,000.0,038.1,030.6,31.4,0000.0,0012.59,0006.30,0005.40
2023-07-15 21:54:00,SystemResetWarning,0834.1,5.00,000.00,030.2,026.5,000.0,038.2,030.8,31.4,0000.0,0012.94,0006.33,0005.40
2023-07-15 21:55:00,SystemResetWarning,0834.1,5.00,000.00,030.2,026.9,000.0,038.2,030.9,31.2,0000.0,0013.15,0006.30,0005.39
2023-07-15 21:56:00,SystemResetWarning,0834.2,5.00,000.00,030.2,027.3,000.0,038.2,031.0,31.2,0000.0,0013.08,0006.28,0005.36
2023-07-15 21:57:00,SystemResetWarning,0834.2,5.00,000.00,030.3,027.6,000.0,038.3,031.0,31.2,0000.0,0013.04,0006.25,0005.34
2023-07-15 21:58:00,SystemResetWarning,0834.2,4.99,000.00,030.3,027.4,000.0,038.2,031.1,30.9,0000.0,0013.18,0006.29,0005.31
2023-07-15 21:59:00,SystemResetWarning,0834.2,4.99,000.00,030.3,025.8,000.0,038.1,030.8,31.0,0000.0,0012.72,0006.29,0005.29
